FW7858 Weather Reports


Display with metric or nautical units.
time (UTC)temp
F
wind
direction
speed
MPH
gust
MPH
rain 1hr
in
rain 24hr
in
rain mn
in
humidity
%
barometer
mb
20240530040542 62 127 2.0 4.0 0.00 0.00 0.00 65 1015.6
20240530040042 62 339 1.0 4.0 0.00 0.00 0.00 64 1015.6
20240530035542 62 351 1.0 5.0 0.00 0.00 0.00 64 1015.7
20240530035046 62 336 1.0 5.0 0.00 0.00 0.00 63 1015.7
20240530034542 62 34 1.0 4.0 0.00 0.00 0.00 63 1015.8
20240530034041 63 13 1.0 5.0 0.00 0.00 0.00 63 1015.7
20240530033540 63 11 2.0 5.0 0.00 0.00 0.00 62 1015.7
20240530033040 63 349 1.0 4.0 0.00 0.00 0.00 61 1015.7
20240530032542 63 350 1.0 5.0 0.00 0.00 0.00 61 1015.7
20240530032040 63 347 2.0 5.0 0.00 0.00 0.00 60 1015.7
20240530031543 63 282 1.0 7.0 0.00 0.00 0.00 60 1015.7
20240530031040 63 155 0.0 7.0 0.00 0.00 0.00 59 1015.7
20240530030539 64 19 2.0 4.0 0.00 0.00 0.00 59 1015.7
20240530030044 64 138 1.0 3.0 0.00 0.00 0.00 59 1015.5
20240530025543 64 223 0.0 5.0 0.00 0.00 0.00 58 1015.6
20240530025039 64 227 1.0 5.0 0.00 0.00 0.00 57 1015.5
20240530024541 64 256 1.0 3.0 0.00 0.00 0.00 57 1015.4
20240530024042 64 25 1.0 3.0 0.00 0.00 0.00 57 1015.2
20240530023539 65 348 0.0 4.0 0.00 0.00 0.00 57 1015.2
20240530023039 65 262 1.0 3.0 0.00 0.00 0.00 57 1015.2
20240530022539 65 160 1.0 3.0 0.00 0.00 0.00 56 1015.2
20240530022039 65 134 0.0 4.0 0.00 0.00 0.00 55 1015.1
20240530021538 66 246 1.0 5.0 0.00 0.00 0.00 56 1015.1
20240530021039 66 248 0.0 5.0 0.00 0.00 0.00 55 1015.0
20240530020538 66 126 1.0 4.0 0.00 0.00 0.00 55 1015.0
20240530020046 67 222 1.0 4.0 0.00 0.00 0.00 55 1015.0
20240530015538 67 249 1.0 4.0 0.00 0.00 0.00 54 1015.1
20240530015037 67 161 1.0 6.0 0.00 0.00 0.00 53 1015.1
20240530014536 67 187 1.0 6.0 0.00 0.00 0.00 53 1015.2
20240530014038 67 29 1.0 4.0 0.00 0.00 0.00 53 1015.2
20240530013535 68 345 1.0 3.0 0.00 0.00 0.00 54 1015.2
20240530013046 68 257 1.0 6.0 0.00 0.00 0.00 53 1015.3
20240530012535 68 220 1.0 8.0 0.00 0.00 0.00 53 1015.2
20240530012035 68 355 2.0 8.0 0.00 0.00 0.00 53 1015.3
20240530011535 69 349 2.0 10.0 0.00 0.00 0.00 52 1015.3
20240530011033 69 214 2.0 10.0 0.00 0.00 0.00 51 1015.4
20240530010532 69 311 1.0 6.0 0.00 0.00 0.00 52 1015.4
20240530010041 69 299 1.0 5.0 0.00 0.00 0.00 52 1015.5
20240530005532 69 188 2.0 10.0 0.00 0.00 0.00 50 1015.5
20240530005030 69 319 2.0 10.0 0.00 0.00 0.00 50 1015.6
20240530004533 70 336 1.0 12.0 0.00 0.00 0.00 50 1015.6
20240530004031 70 323 3.0 12.0 0.00 0.00 0.00 49 1015.6
20240530003529 70 68 2.0 8.0 0.00 0.00 0.00 49 1015.7
20240530003044 70 271 2.0 6.0 0.00 0.00 0.00 47 1015.8
20240530002529 71 5 2.0 6.0 0.00 0.00 0.00 48 1015.9
20240530002028 71 339 2.0 7.0 0.00 0.00 0.00 47 1015.8
20240530001528 71 246 2.0 9.0 0.00 0.00 0.00 47 1015.9
20240530001028 71 136 2.0 12.0 0.00 0.00 0.00 46 1015.9
20240530000526 71 256 6.0 13.0 0.00 0.00 0.00 46 1016.0
20240530000026 71 245 6.0 13.0 0.00 0.00 0.00 45 1016.0
20240529235526 71 306 3.0 13.0 0.00 0.00 0.00 46 1016.1
20240529235026 71 234 3.0 10.0 0.00 0.00 0.00 45 1016.2
20240529234527 71 190 2.0 16.0 0.00 0.00 0.00 44 1016.3
20240529234025 71 267 4.0 16.0 0.00 0.00 0.00 44 1016.3
20240529233523 72 232 6.0 12.0 0.00 0.00 0.00 43 1016.4
20240529233029 72 315 3.0 12.0 0.00 0.00 0.00 43 1016.6
20240529232523 72 268 5.0 12.0 0.00 0.00 0.00 43 1016.6
20240529232020 71 261 7.0 13.0 0.00 0.00 0.00 43 1016.8
20240529231519 71 248 6.0 15.0 0.00 0.00 0.00 44 1016.8
20240529231019 71 259 7.0 15.0 0.00 0.00 0.00 43 1016.8
20240529230518 72 234 5.0 14.0 0.00 0.00 0.00 44 1016.9
20240529230018 72 254 3.0 13.0 0.00 0.00 0.00 44 1016.9
20240529225521 71 319 3.0 15.0 0.00 0.00 0.00 45 1016.9
20240529225017 71 266 5.0 17.0 0.00 0.00 0.00 43 1017.1
20240529224516 71 271 7.0 12.0 0.00 0.00 0.00 44 1017.0
20240529224015 71 250 5.0 14.0 0.00 0.00 0.00 43 1017.1
20240529223515 72 266 7.0 17.0 0.00 0.00 0.00 45 1017.1
20240529223015 71 213 9.0 17.0 0.00 0.00 0.00 45 1017.1
20240529222514 72 202 4.0 15.0 0.00 0.00 0.00 45 1017.2
20240529222019 72 127 4.0 14.0 0.00 0.00 0.00 45 1017.4
20240529221513 71 238 7.0 17.0 0.00 0.00 0.00 45 1017.3
20240529221016 71 239 8.0 16.0 0.00 0.00 0.00 44 1017.4
20240529220512 72 230 8.0 16.0 0.00 0.00 0.00 44 1017.4
20240529220024 72 230 2.0 16.0 0.00 0.00 0.00 44 1017.6
20240529215512 72 238 6.0 16.0 0.00 0.00 0.00 44 1017.6
20240529215011 72 286 7.0 14.0 0.00 0.00 0.00 45 1017.6
20240529214512 72 236 7.0 17.0 0.00 0.00 0.00 43 1017.6
20240529214012 72 184 8.0 17.0 0.00 0.00 0.00 45 1017.6
20240529213511 72 251 8.0 18.0 0.00 0.00 0.00 44 1017.7
20240529213010 72 221 7.0 18.0 0.00 0.00 0.00 45 1017.6
20240529212509 72 233 5.0 16.0 0.00 0.00 0.00 45 1017.8
20240529212010 72 182 10.0 16.0 0.00 0.00 0.00 45 1017.9
20240529211509 72 217 7.0 16.0 0.00 0.00 0.00 46 1017.9
20240529211011 71 209 8.0 15.0 0.00 0.00 0.00 46 1017.9
20240529210509 71 213 6.0 15.0 0.00 0.00 0.00 46 1018.0
20240529210007 71 253 5.0 15.0 0.00 0.00 0.00 45 1018.1
20240529205507 71 262 6.0 12.0 0.00 0.00 0.00 45 1018.1
20240529205005 71 251 4.0 17.0 0.00 0.00 0.00 47 1018.2
20240529204506 71 215 10.0 17.0 0.00 0.00 0.00 47 1018.2
20240529204007 71 234 7.0 17.0 0.00 0.00 0.00 46 1018.3
20240529203505 72 273 3.0 11.0 0.00 0.00 0.00 45 1018.4
20240529203004 72 339 4.0 11.0 0.00 0.00 0.00 47 1018.4
20240529202502 71 242 3.0 8.0 0.00 0.00 0.00 47 1018.6
20240529202002 71 254 2.0 13.0 0.00 0.00 0.00 47 1018.6
20240529201605 71 51 3.0 16.0 0.00 0.00 0.00 45 1018.7
20240529201101 71 231 10.0 20.0 0.00 0.00 0.00 47 1018.7
20240529200600 70 182 5.0 20.0 0.00 0.00 0.00 48 1018.8
20240529200100 71 229 11.0 18.0 0.00 0.00 0.00 47 1018.8
20240529195559 70 251 2.0 14.0 0.00 0.00 0.00 47 1018.8
20240529195102 70 263 4.0 14.0 0.00 0.00 0.00 49 1018.9
20240529194601 71 239 6.0 12.0 0.00 0.00 0.00 48 1019.0
20240529194058 71 217 4.0 9.0 0.00 0.00 0.00 49 1019.0
20240529193556 71 188 4.0 11.0 0.00 0.00 0.00 52 1019.1
20240529193116 70 168 4.0 11.0 0.00 0.00 0.00 51 1019.1
20240529192555 70 125 2.0 12.0 0.00 0.00 0.00 54 1019.2
20240529192054 70 269 5.0 12.0 0.00 0.00 0.00 51 1019.3
20240529191609 70 146 2.0 7.0 0.00 0.00 0.00 53 1019.3
20240529191051 69 144 2.0 11.0 0.00 0.00 0.00 52 1019.3
20240529190550 69 178 5.0 11.0 0.00 0.00 0.00 47 1019.4
20240529190054 69 89 2.0 12.0 0.00 0.00 0.00 52 1019.6
20240529190001 69 231 4.0 12.0 0.00 0.00 0.00 51 1019.6
20240529185548 69 240 5.0 12.0 0.00 0.00 0.00 48 1019.6
20240529185050 69 261 3.0 13.0 0.00 0.00 0.00 51 1019.6
20240529184606 69 315 4.0 14.0 0.00 0.00 0.00 49 1019.7
20240529184046 69 220 7.0 14.0 0.00 0.00 0.00 47 1019.8
20240529183549 69 249 7.0 11.0 0.00 0.00 0.00 49 1020.0
20240529183045 69 55 2.0 11.0 0.00 0.00 0.00 52 1020.0
20240529182544 69 228 2.0 11.0 0.00 0.00 0.00 54 1020.0
20240529182045 69 239 2.0 11.0 0.00 0.00 0.00 55 1020.2
20240529181542 68 294 2.0 15.0 0.00 0.00 0.00 54 1020.3
20240529181041 68 269 6.0 15.0 0.00 0.00 0.00 53 1020.4
20240529180543 68 251 4.0 11.0 0.00 0.00 0.00 51 1020.4
20240529180040 68 296 4.0 11.0 0.00 0.00 0.00 53 1020.4
20240529175541 68 98 4.0 11.0 0.00 0.00 0.00 52 1020.5
20240529175038 67 271 2.0 14.0 0.00 0.00 0.00 57 1020.5
20240529174539 67 214 4.0 14.0 0.00 0.00 0.00 54 1020.5
20240529174037 67 255 4.0 11.0 0.00 0.00 0.00 55 1020.5
20240529173537 67 252 3.0 11.0 0.00 0.00 0.00 58 1020.6
20240529173037 67 300 4.0 14.0 0.00 0.00 0.00 56 1020.6
20240529172535 67 240 2.0 10.0 0.00 0.00 0.00 57 1020.7
20240529172034 67 225 3.0 10.0 0.00 0.00 0.00 57 1020.8
20240529171534 67 30 1.0 5.0 0.00 0.00 0.00 59 1020.9
20240529171032 66 119 1.0 10.0 0.00 0.00 0.00 57 1021.0
20240529170531 66 203 4.0 10.0 0.00 0.00 0.00 58 1021.1
20240529170034 66 273 3.0 8.0 0.00 0.00 0.00 57 1021.1
20240529165529 66 9 1.0 8.0 0.00 0.00 0.00 61 1021.1
20240529165029 66 271 2.0 12.0 0.00 0.00 0.00 63 1021.3
20240529164528 65 252 5.0 12.0 0.00 0.00 0.00 60 1021.3
20240529164030 65 252 4.0 13.0 0.00 0.00 0.00 60 1021.4
20240529163527 65 209 6.0 13.0 0.00 0.00 0.00 59 1021.4
20240529163026 65 342 1.0 8.0 0.00 0.00 0.00 63 1021.4
20240529162525 64 275 2.0 9.0 0.00 0.00 0.00 61 1021.5
20240529162024 64 281 6.0 9.0 0.00 0.00 0.00 60 1021.5
20240529161523 64 132 1.0 12.0 0.00 0.00 0.00 62 1021.6
20240529161023 64 227 6.0 12.0 0.00 0.00 0.00 61 1021.6
20240529160525 64 226 2.0 11.0 0.00 0.00 0.00 64 1021.8
20240529160022 63 135 5.0 11.0 0.00 0.00 0.00 61 1021.8
20240529155520 63 288 4.0 10.0 0.00 0.00 0.00 62 1021.9
20240529155019 63 280 2.0 11.0 0.00 0.00 0.00 64 1022.0
20240529154523 63 218 6.0 11.0 0.00 0.00 0.00 63 1022.0
20240529154019 62 278 2.0 12.0 0.00 0.00 0.00 65 1022.0
20240529153531 62 263 6.0 13.0 0.00 0.00 0.00 65 1022.1
20240529153017 62 198 7.0 15.0 0.00 0.00 0.00 64 1022.2
20240529152518 62 237 5.0 15.0 0.00 0.00 0.00 65 1022.2
20240529152015 61 255 4.0 11.0 0.00 0.00 0.00 66 1022.2
20240529151514 61 234 3.0 10.0 0.00 0.00 0.00 66 1022.4
20240529151013 61 242 4.0 13.0 0.00 0.00 0.00 68 1022.5
20240529150513 61 242 5.0 13.0 0.00 0.00 0.00 69 1022.5
20240529150013 61 259 5.0 10.0 0.00 0.00 0.00 66 1022.5
20240529145513 61 211 5.0 9.0 0.00 0.00 0.00 68 1022.5
20240529145010 61 263 3.0 8.0 0.00 0.00 0.00 71 1022.5
20240529144510 60 272 3.0 7.0 0.00 0.00 0.00 71 1022.6
20240529144008 60 131 3.0 9.0 0.00 0.00 0.00 71 1022.6
20240529143511 60 256 4.0 9.0 0.00 0.00 0.00 72 1022.7
20240529143008 60 259 4.0 10.0 0.00 0.00 0.00 73 1022.8
20240529142506 59 243 4.0 10.0 0.00 0.00 0.00 72 1022.8
20240529142008 59 291 2.0 6.0 0.00 0.00 0.00 74 1022.8
20240529141502 59 255 2.0 8.0 0.00 0.00 0.00 74 1022.9
20240529141002 58 266 2.0 8.0 0.00 0.00 0.00 75 1022.9
20240529140559 58 267 2.0 6.0 0.00 0.00 0.00 77 1023.0
20240529140104 58 288 0.0 8.0 0.00 0.00 0.00 78 1023.0
20240529135557 57 269 3.0 7.0 0.00 0.00 0.00 80 1023.0
20240529135058 57 246 2.0 9.0 0.00 0.00 0.00 81 1023.1
20240529134555 56 255 2.0 9.0 0.00 0.00 0.00 81 1023.1
20240529134054 56 288 0.0 7.0 0.00 0.00 0.00 82 1023.1
20240529133618 56 252 3.0 9.0 0.00 0.00 0.00 82 1023.1
20240529133052 55 217 4.0 9.0 0.00 0.00 0.00 83 1023.2
20240529132554 55 254 1.0 5.0 0.00 0.00 0.00 85 1023.1
20240529132049 55 257 0.0 4.0 0.00 0.00 0.00 87 1023.1
20240529131550 54 254 0.0 4.0 0.00 0.00 0.00 89 1023.1
20240529131049 54 211 0.0 4.0 0.00 0.00 0.00 90 1023.1
20240529130547 53 144 0.0 2.0 0.00 0.00 0.00 91 1023.1
20240529130051 53 144 0.0 2.0 0.00 0.00 0.00 92 1023.0
20240529125547 53 202 0.0 2.0 0.00 0.00 0.00 93 1023.0
20240529125043 52 32 0.0 2.0 0.00 0.00 0.00 94 1023.0
20240529124545 52 32 0.0 3.0 0.00 0.00 0.00 94 1023.0
20240529124043 52 56 1.0 3.0 0.00 0.00 0.00 95 1023.0
20240529123541 51 56 0.0 3.0 0.00 0.00 0.00 95 1023.0
20240529123057 51 57 0.0 2.0 0.00 0.00 0.00 96 1023.0
20240529122538 51 57 0.0 2.0 0.00 0.00 0.00 96 1022.9
20240529122107 51 57 0.0 3.0 0.00 0.00 0.00 96 1022.9
20240529121535 50 57 1.0 3.0 0.00 0.00 0.00 96 1022.9
20240529121034 50 58 0.0 2.0 0.00 0.00 0.00 96 1022.9
20240529120536 50 58 0.0 2.0 0.00 0.00 0.00 97 1022.8
20240529120035 49 58 0.0 2.0 0.00 0.00 0.00 96 1022.7
20240529115536 49 58 0.0 1.0 0.00 0.00 0.00 96 1022.7
20240529115035 49 58 0.0 2.0 0.00 0.00 0.00 96 1022.7
20240529114533 49 58 0.0 2.0 0.00 0.00 0.00 96 1022.6
20240529114032 48 58 0.0 0.0 0.00 0.00 0.00 96 1022.6
20240529113531 48 58 0.0 0.0 0.00 0.00 0.00 96 1022.5
20240529113038 48 58 0.0 1.0 0.00 0.00 0.00 96 1022.5
20240529112531 47 58 0.0 1.0 0.00 0.00 0.00 97 1022.5
20240529112029 47 58 0.0 0.0 0.00 0.00 0.00 97 1022.5
20240529111539 46 58 0.0 0.0 0.00 0.00 0.00 97 1022.3
20240529111029 45 58 0.0 0.0 0.00 0.00 0.00 96 1022.3
20240529110531 44 58 0.0 0.0 0.00 0.00 0.00 94 1022.2
20240529110027 45 58 0.0 0.0 0.00 0.00 0.00 94 1022.2
20240529105527 46 58 0.0 0.0 0.00 0.00 0.00 93 1022.1
20240529105029 46 58 0.0 0.0 0.00 0.00 0.00 96 1022.0
20240529104528 46 58 0.0 0.0 0.00 0.00 0.00 96 1022.0
20240529104028 46 58 0.0 0.0 0.00 0.00 0.00 96 1021.9
20240529103526 45 58 0.0 0.0 0.00 0.00 0.00 96 1021.9
20240529103025 44 58 0.0 0.0 0.00 0.00 0.00 95 1021.9
20240529102523 44 58 0.0 0.0 0.00 0.00 0.00 94 1021.9
20240529102022 44 58 0.0 0.0 0.00 0.00 0.00 93 1021.8
20240529101526 44 58 0.0 0.0 0.00 0.00 0.00 94 1021.8
20240529101020 44 58 0.0 0.0 0.00 0.00 0.00 94 1021.8
20240529100520 45 58 0.0 0.0 0.00 0.00 0.00 93 1021.7
20240529100023 45 58 0.0 0.0 0.00 0.00 0.00 93 1021.7
20240529095517 45 58 0.0 0.0 0.00 0.00 0.00 93 1021.7
20240529095017 46 58 0.0 0.0 0.00 0.00 0.00 93 1021.6
20240529094518 47 58 0.0 0.0 0.00 0.00 0.00 94 1021.6
20240529094019 47 58 0.0 0.0 0.00 0.00 0.00 95 1021.6
20240529093517 47 58 0.0 0.0 0.00 0.00 0.00 95 1021.6
20240529093017 47 58 0.0 0.0 0.00 0.00 0.00 95 1021.4
20240529092519 47 58 0.0 0.0 0.00 0.00 0.00 95 1021.4
20240529092015 46 58 0.0 0.0 0.00 0.00 0.00 95 1021.4
20240529091524 46 58 0.0 0.0 0.00 0.00 0.00 95 1021.4
20240529091015 46 58 0.0 0.0 0.00 0.00 0.00 95 1021.4
20240529090515 46 58 0.0 0.0 0.00 0.00 0.00 94 1021.3
20240529090019 46 58 0.0 0.0 0.00 0.00 0.00 94 1021.3
20240529085515 46 58 0.0 0.0 0.00 0.00 0.00 94 1021.2
20240529085013 45 58 0.0 0.0 0.00 0.00 0.00 94 1021.2
20240529084515 45 58 0.0 0.0 0.00 0.00 0.00 93 1021.2
20240529084013 46 58 0.0 0.0 0.00 0.00 0.00 93 1021.2
20240529083512 46 58 0.0 0.0 0.00 0.00 0.00 93 1021.1
20240529083012 46 58 0.0 0.0 0.00 0.00 0.00 93 1021.1
20240529082514 46 58 0.0 0.0 0.00 0.00 0.00 93 1021.1
20240529082011 46 58 0.0 0.0 0.00 0.00 0.00 93 1021.0
20240529081509 46 58 0.0 0.0 0.00 0.00 0.00 93 1021.0
20240529081014 46 58 0.0 0.0 0.00 0.00 0.00 93 1020.9
20240529080510 46 58 0.0 0.0 0.00 0.00 0.00 93 1020.9
20240529080015 46 58 0.0 0.0 0.00 0.01 0.00 93 1020.9
20240529075508 46 58 0.0 0.0 0.00 0.01 0.00 93 1020.9
20240529075007 46 58 0.0 0.0 0.00 0.01 0.00 93 1020.9
20240529074507 46 58 0.0 0.0 0.00 0.01 0.00 92 1020.9
20240529074007 46 58 0.0 0.0 0.00 0.01 0.00 92 1020.9
20240529073506 47 58 0.0 0.0 0.00 0.01 0.00 92 1020.8
20240529073005 47 58 0.0 0.0 0.00 0.01 0.00 92 1020.9
20240529072504 47 58 0.0 0.0 0.00 0.01 0.00 91 1020.9
20240529072004 47 58 0.0 0.0 0.00 0.01 0.00 91 1020.9
20240529071503 47 58 0.0 0.0 0.00 0.01 0.00 91 1020.9
20240529071001 47 58 0.0 0.0 0.00 0.01 0.00 91 1021.0
20240529070502 48 58 0.0 0.0 0.00 0.01 0.00 92 1021.0
20240529070001 48 58 0.0 1.0 0.00 0.01 0.00 92 1021.0
20240529065600 48 58 0.0 1.0 0.00 0.01 0.00 92 1021.0
20240529065100 48 58 0.0 0.0 0.00 0.01 0.00 91 1021.1
20240529064601 48 58 0.0 0.0 0.00 0.01 0.00 91 1021.1
20240529064059 48 58 0.0 0.0 0.00 0.01 0.00 91 1021.1
20240529063558 49 58 0.0 0.0 0.00 0.01 0.00 91 1021.1
20240529063058 49 58 0.0 2.0 0.00 0.01 0.00 91 1021.2
20240529062558 49 58 0.0 2.0 0.00 0.01 0.00 91 1021.2
20240529062057 48 58 0.0 0.0 0.00 0.01 0.00 91 1021.2
20240529061556 48 58 0.0 2.0 0.00 0.01 0.00 91 1021.3
20240529061054 48 58 0.0 2.0 0.00 0.01 0.00 91 1021.3
20240529060554 48 58 0.0 2.0 0.00 0.01 0.00 91 1021.4
20240529060053 48 58 0.0 0.0 0.00 0.01 0.00 90 1021.6
20240529055554 49 58 0.0 0.0 0.00 0.01 0.00 89 1021.6
20240529055051 49 58 0.0 0.0 0.00 0.01 0.00 89 1021.7
20240529054551 49 58 0.0 0.0 0.00 0.01 0.00 89 1021.6
20240529054050 49 58 0.0 0.0 0.00 0.01 0.00 88 1021.6
20240529053552 49 58 0.0 0.0 0.00 0.01 0.00 88 1021.6
20240529053049 50 58 0.0 0.0 0.00 0.01 0.00 88 1021.6
20240529052547 50 58 0.0 0.0 0.00 0.01 0.00 87 1021.7
20240529052046 50 58 0.0 0.0 0.00 0.01 0.00 87 1021.7
20240529051554 50 58 0.0 0.0 0.00 0.01 0.00 87 1021.6
20240529051045 51 58 0.0 2.0 0.00 0.01 0.00 87 1021.7
20240529050543 51 58 0.0 4.0 0.00 0.01 0.00 87 1021.7
20240529050044 51 58 2.0 4.0 0.00 0.01 0.01 86 1021.7
20240529045545 51 60 0.0 3.0 0.00 0.01 0.01 86 1021.7
20240529045043 51 60 0.0 3.0 0.00 0.01 0.01 86 1021.8
20240529044543 51 60 0.0 5.0 0.00 0.01 0.01 85 1021.7
20240529044044 51 60 1.0 5.0 0.00 0.01 0.01 85 1021.6
20240529043544 51 61 2.0 5.0 0.00 0.01 0.01 85 1021.7
20240529043100 51 58 2.0 5.0 0.00 0.01 0.01 84 1021.7
20240529042541 52 58 2.0 5.0 0.00 0.01 0.01 84 1021.6
20240529042041 52 53 3.0 5.0 0.00 0.01 0.01 84 1021.7
20240529041541 52 55 2.0 5.0 0.00 0.01 0.01 84 1021.6
20240529041040 52 51 2.0 4.0 0.00 0.01 0.01 83 1021.6